Temperature
23 22 22 21 20 19 21 22 22 22 21 21 21 21 20 19 19 19 19 19 19 19 19 18 18 18 18 18 18 18 18 18 18 18 18 18 18 18 18 18 18 18 18 18 18 18 18 18 18
23 22 22 21 20 20 21 22 22 22 22 22 21 20 19 18 18 19 19 19 19 19 19 19 18 18 18 18 18 18 18 18 18 18 18 18 18 18 18 18 18 18 18 18 18 18 18 18 18
23 22 22 20 20 20 22 22 22 22 22 22 21 20 19 19 19 19 19 19 19 19 19 18 18 18 18 18 18 18 18 18 18 18 18 18 18 18 18 18 18 18 18 18 18 18 18 18 18
23 23 22 20 22 22 22 22 22 22 22 22 21 20 19 19 20 19 19 19 19 19 19 18 18 18 18 18 18 18 18 18 18 18 18 18 18 18 18 18 18 18 18 18 18 18 18 18 18
23 23 21 21 22 23 23 23 23 22 22 21 21 19 19 19 20 20 19 19 19 19 19 18 18 18 18 18 18 18 18 18 18 18 18 18 18 18 18 18 18 18 18 18 18 18 18 18 17
24 21 21 21 23 23 23 23 23 22 21 21 20 19 19 20 20 20 19 19 19 19 19 18 18 18 18 18 18 18 18 18 18 18 18 18 18 18 18 18 18 18 18 18 18 17 18 17 17
23 21 22 22 23 23 23 23 22 22 21 21 21 19 19 19 20 19 19 19 19 19 19 18 18 18 18 18 18 18 18 18 18 18 18 18 18 18 18 18 18 18 18 18 18 17 17 17 17
25 21 23 22 23 23 23 23 23 22 22 22 21 20 19 19 19 19 19 19 19 19 19 18 18 18 18 18 18 18 18 18 18 18 18 18 18 18 18 18 18 18 18 18 18 17 17 17 17
25 21 22 23 23 23 23 23 23 23 22 21 21 21 21 20 19 19 19 19 19 19 19 18 18 18 18 18 18 18 18 18 18 18 18 18 18 18 18 18 18 18 18 18 18 17 17 17 17
24 22 23 24 24 23 24 23 23 22 21 21 21 21 20 20 19 19 19 19 19 19 19 19 18 18 18 18 18 18 18 18 18 18 18 18 18 18 18 18 18 18 18 18 18 18 17 17 17
24 23 24 25 25 25 24 23 23 22 21 21 21 20 20 20 19 19 19 19 19 19 19 19 19 18 18 18 18 18 18 18 18 18 18 18 18 18 18 18 18 18 18 17 17 17 17 17 17
25 25 25 25 25 25 24 24 23 22 22 22 22 21 20 20 20 19 19 19 19 19 19 19 19 18 18 18 18 18 18 18 18 18 18 18 18 18 18 18 18 18 18 18 17 17 17 17 17
25 25 26 26 25 25 24 23 23 22 23 22 21 21 20 20 20 20 19 19 19 19 19 19 19 18 18 18 18 18 18 18 18 18 18 18 18 18 18 18 18 18 18 18 18 17 17 17 17
26 25 25 25 25 25 24 23 23 22 22 22 21 20 20 20 20 20 20 19 19 19 19 19 19 18 18 18 18 18 18 18 18 18 18 18 18 18 18 18 18 18 18 18 18 17 17 17 17
26 25 25 25 25 24 24 23 22 22 22 21 21 20 20 20 20 20 20 20 20 19 19 19 19 18 18 18 18 18 18 18 18 18 18 18 18 18 18 18 18 18 18 18 17 17 17 17 17
25 24 24 25 24 24 24 22 22 22 21 21 20 20 20 21 20 21 20 20 20 20 19 19 19 19 18 18 18 18 18 18 18 18 18 18 18 18 18 18 18 18 18 18 18 17 17 17 17
23 23 24 25 25 24 23 22 22 22 21 21 21 21 21 21 21 20 20 20 20 20 20 19 19 19 19 18 18 18 18 18 18 18 18 18 18 18 18 18 18 18 18 18 18 17 17 17 17
24 24 24 24 24 24 23 22 22 22 21 21 21 21 21 21 21 21 21 20 20 20 20 19 19 19 19 18 18 18 18 18 18 18 18 18 18 18 18 18 18 18 18 18 17 17 17 17 17
25 24 24 24 24 23 23 22 22 22 21 21 21 21 21 21 21 21 21 20 20 20 20 19 19 19 19 19 18 18 18 18 18 18 18 18 18 18 18 18 18 18 18 18 17 17 17 17 17
25 24 24 24 24 23 22 22 22 22 21 21 21 21 21 21 21 21 21 21 20 20 20 20 19 19 19 19 19 18 18 18 18 18 18 18 18 18 18 18 18 18 17 17 17 17 17 17 17
25 24 24 24 24 23 23 23 22 22 22 22 22 22 22 22 22 22 21 21 21 20 20 20 20 19 19 19 18 18 18 18 18 18 18 18 18 17 17 17 17 17 17 17 17 17 17 17 17
25 25 25 24 23 22 23 22 22 21 21 21 21 21 22 22 22 22 22 21 21 21 20 20 20 19 19 19 19 18 18 18 18 18 18 18 17 17 17 17 17 17 17 17 17 17 17 17 17
25 25 24 24 22 22 22 21 21 20 20 21 21 21 22 22 22 22 22 22 21 21 20 20 20 19 19 19 19 18 18 18 18 18 18 18 17 17 17 17 17 17 17 17 17 17 17 17 17
25 23 22 20 20 21 21 21 21 20 20 21 21 21 22 22 22 22 22 22 21 21 20 20 20 20 19 19 19 19 18 18 18 18 18 18 17 17 17 17 17 17 17 17 17 17 17 17 17
24 22 21 22 20 21 21 21 21 21 21 21 21 21 22 22 22 22 22 21 21 21 20 20 20 20 19 19 19 19 19 18 18 18 18 18 18 17 17 17 17 17 17 17 17 17 17 17 17
23 22 22 22 21 21 21 21 21 22 22 22 22 22 22 22 22 22 22 22 21 21 21 20 20 20 20 19 19 19 18 18 18 18 18 18 18 17 17 17 17 17 17 17 17 17 16 16 16
23 22 21 19 20 21 20 21 21 21 21 21 21 21 21 21 22 22 22 22 21 21 21 20 20 20 19 19 19 19 18 18 18 18 17 17 17 17 17 17 17 17 17 16 16 16 16 16 16
23 19 19 19 20 21 22 21 21 22 21 20 20 20 21 21 21 22 22 22 21 21 21 20 20 20 20 19 19 19 18 18 18 17 17 17 17 17 17 17 17 17 16 16 16 16 16 16 16
22 21 18 17 19 20 21 21 21 20 20 20 20 21 21 21 21 22 22 22 21 21 21 20 20 20 20 19 19 19 18 18 18 17 17 17 17 17 17 17 16 16 16 16 16 16 16 16 16
23 21 19 21 19 18 19 21 21 20 20 20 20 21 21 21 22 22 22 21 21 21 21 20 20 20 19 19 19 19 18 18 18 17 17 17 17 17 17 16 16 16 16 16 16 16 16 16 16
Wind_Speed
11 9 3 1 5 6 4 3 3 4 4 4 7 7 7 5 3 3 1 3 4 3 4 6 8 9 9 10 10 11 12 12 13 13 13 13 13 13 13 13 13 13 14 14 14 15 15 16 16
8 6 1 3 5 4 3 3 5 4 5 5 7 7 7 5 3 4 2 3 4 4 4 6 8 9 9 10 10 10 11 11 12 12 12 12 12 12 12 13 13 13 13 14 14 15 15 16 16
7 3 3 4 4 3 2 2 6 6 4 3 4 5 5 3 3 3 3 6 5 4 4 6 8 9 9 9 9 10 10 10 11 11 11 11 12 12 12 12 12 12 12 13 14 14 14 14 14
4 2 4 6 4 0 3 4 6 6 4 6 5 5 4 3 3 4 7 7 6 4 3 5 7 8 8 8 8 9 9 9 10 10 10 10 11 11 11 11 11 12 11 12 12 13 13 13 13
2 4 6 5 4 3 3 5 4 5 4 5 5 5 4 4 6 9 8 7 5 3 3 4 7 7 7 7 8 8 8 9 9 10 10 10 10 10 10 11 11 11 11 11 11 12 12 12 12
4 4 5 3 3 3 3 3 5 7 6 5 5 5 3 2 6 7 6 5 4 4 3 4 5 6 7 7 7 7 7 8 9 9 9 9 9 9 9 9 10 10 10 10 10 11 11 11 11
4 4 4 3 2 3 3 3 4 5 5 4 4 5 2 2 4 6 6 5 4 3 3 3 3 4 5 6 6 7 8 8 8 9 9 9 8 8 8 8 8 8 9 9 9 10 9 9 9
4 5 4 2 3 2 4 3 4 5 4 5 4 6 5 5 7 7 6 5 4 3 2 2 3 3 3 3 4 6 7 8 8 8 8 7 7 7 7 6 6 7 8 8 8 8 8 8 7
4 5 2 4 6 4 5 4 3 4 6 3 3 4 6 11 10 8 5 3 2 2 1 1 2 2 2 2 3 4 6 7 7 6 6 6 5 5 5 5 6 6 7 7 6 6 7 6 6
4 4 5 4 6 7 6 5 5 5 5 3 6 7 11 12 10 8 6 5 3 2 1 1 1 1 1 2 3 3 4 4 4 4 4 5 5 4 4 4 4 5 5 5 6 6 5 4 3
4 4 2 2 5 8 7 5 4 7 3 5 9 11 12 10 8 7 6 5 4 3 2 1 1 1 1 1 2 3 3 3 4 4 4 4 3 3 3 3 3 3 3 3 3 3 3 2 2
4 2 3 3 6 7 6 6 5 4 4 6 11 12 11 10 8 7 6 5 4 3 3 2 2 1 1 2 2 2 2 2 2 2 3 3 2 2 2 2 2 2 2 2 2 1 1 1 1
4 3 4 6 8 7 7 5 5 3 6 10 11 11 10 9 7 5 4 4 3 3 3 3 3 2 2 2 1 2 1 1 1 1 2 3 2 1 1 1 1 1 1 1 1 0 0 0 0
3 5 6 6 7 5 7 4 4 3 9 11 11 9 8 8 7 5 4 4 4 4 4 3 3 3 3 3 2 1 2 2 2 2 2 3 3 2 1 1 0 1 1 1 1 1 1 0 0
6 7 6 4 5 4 7 4 1 5 9 10 9 9 7 6 6 6 7 6 5 4 4 4 4 3 3 3 2 2 2 2 2 2 3 3 3 3 2 1 1 1 2 2 1 1 1 1 1
5 6 3 1 3 4 7 2 3 7 9 9 8 8 7 7 7 6 6 5 4 4 4 4 4 4 3 3 2 1 1 1 1 2 2 3 4 4 3 2 2 2 1 1 1 1 1 1 1
5 3 1 1 2 4 4 3 4 8 9 9 8 7 7 6 5 5 5 5 5 5 4 4 3 4 4 3 2 2 1 1 1 1 1 3 4 5 4 2 2 2 1 1 2 1 1 1 1
3 3 2 3 2 4 4 3 4 8 9 9 8 7 7 7 8 6 5 5 5 4 4 3 3 3 4 3 2 2 2 1 0 0 1 2 3 3 3 2 2 2 2 1 1 1 1 1 1
6 6 3 3 2 4 4 3 5 8 8 8 8 8 8 8 6 5 5 5 5 4 4 3 3 3 3 2 2 2 1 0 0 1 1 1 2 2 2 1 1 2 2 2 2 2 1 1 1
6 5 2 1 1 3 1 2 4 8 10 10 10 10 9 7 5 6 6 6 5 5 5 4 4 3 3 2 2 2 1 1 0 1 0 1 1 2 2 2 2 2 2 2 2 2 1 1 1
4 7 6 4 3 4 3 4 2 4 5 6 7 8 8 9 9 8 7 7 6 6 6 5 4 4 3 3 2 2 2 2 1 1 1 1 1 2 2 2 2 2 2 3 3 3 3 2 1
4 6 7 6 5 0 2 2 6 4 5 7 8 8 9 9 8 7 7 7 8 7 5 4 4 4 4 4 3 3 2 1 1 1 1 1 1 1 1 2 2 2 2 3 3 3 3 3 2
5 4 6 5 5 3 2 1 8 1 5 9 10 10 10 10 10 9 9 8 7 6 5 5 4 4 4 4 4 4 2 2 1 0 0 1 1 1 1 2 2 2 2 3 3 2 3 3 3
7 9 8 7 5 1 2 3 7 4 7 6 9 10 9 10 10 8 7 5 5 5 5 5 5 4 4 4 4 4 4 3 2 1 1 1 1 1 1 1 1 2 2 3 3 3 4 3 3
7 7 4 4 4 4 2 3 8 7 6 6 8 9 8 8 8 7 7 7 7 6 6 5 6 4 4 4 4 4 4 4 4 3 3 2 1 1 2 1 1 1 2 2 2 2 3 3 3
6 9 8 6 5 4 1 5 7 5 4 3 4 6 7 7 8 8 9 8 8 8 7 7 6 5 4 4 4 3 3 3 2 3 3 2 2 2 2 1 1 2 2 2 1 1 2 2 3
7 4 7 8 4 1 4 6 8 3 3 1 2 5 7 7 8 8 8 8 8 8 8 8 7 5 4 4 3 2 3 3 3 2 1 1 1 1 1 1 1 1 1 1 1 1 1 1 2
6 10 7 7 6 3 4 4 5 6 5 3 3 6 7 7 7 7 7 8 7 7 6 6 7 6 5 4 3 3 3 3 2 2 1 1 1 0 1 0 0 0 0 1 1 0 0 0 0
5 5 6 6 6 7 4 7 6 7 7 6 7 7 7 9 8 7 6 6 6 6 6 6 6 5 4 4 3 2 2 2 2 2 1 1 1 1 0 0 1 0 0 0 1 1 1 1 0
5 7 8 7 5 5 5 7 5 5 5 6 6 5 6 7 7 6 6 6 5 6 6 6 5 5 4 3 3 3 2 2 2 1 1 1 1 1 1 1 1 0 0 1 1 1 1 1 0
Wind_Direction
145 143 148 114 55 50 32 8 68 55 43 40 65 77 80 59 79 123 329 121 116 112 120 125 122 117 113 112 112 110 110 112 112 112 111 111 111 114 115 115 115 114 115 117 117 116 117 122 123
144 153 147 58 74 61 1 9 70 74 117 109 72 69 68 57 58 101 108 126 121 124 122 126 124 121 115 111 109 107 107 111 115 115 114 112 112 113 113 113 113 114 117 119 119 119 118 119 123
158 182 82 66 80 130 145 102 107 103 107 81 73 60 69 85 111 137 149 125 110 108 120 135 129 124 118 111 107 106 108 110 113 114 114 114 113 113 113 113 114 117 119 121 121 121 121 124 127
151 72 57 64 57 222 158 143 129 120 74 56 82 68 59 69 131 134 123 116 111 105 118 135 128 125 121 116 113 111 112 113 116 117 117 115 115 117 118 117 119 121 122 124 124 123 124 126 126
88 75 58 49 28 32 93 127 120 96 74 64 78 82 46 22 95 114 119 120 122 108 108 128 128 128 129 123 119 119 120 121 123 121 118 117 117 118 119 119 119 121 122 124 124 126 126 128 129
67 69 74 64 43 58 88 111 100 90 93 87 83 86 49 77 107 123 122 121 121 116 100 114 123 123 121 121 119 118 123 127 127 123 120 119 118 117 116 117 119 120 122 125 127 129 126 126 127
102 90 107 125 102 97 132 109 101 109 103 108 111 94 84 118 123 119 111 108 103 98 92 84 100 110 116 117 115 109 115 122 126 125 120 117 116 116 116 117 120 121 120 123 125 125 127 129 131
132 99 87 117 133 146 139 111 107 113 109 122 116 129 161 169 129 110 97 94 93 79 69 70 70 79 86 103 109 105 112 118 122 123 121 118 117 117 117 117 119 122 124 120 124 124 125 129 135
105 81 137 182 164 161 144 120 118 88 105 98 92 132 146 134 125 114 103 89 98 115 59 57 62 70 82 98 107 102 105 112 118 120 116 102 91 99 110 117 119 121 122 124 128 133 122 123 128
95 121 203 193 164 149 144 132 135 108 101 89 79 86 119 131 137 141 148 156 170 190 208 163 127 88 78 98 81 68 72 78 85 92 93 93 93 95 102 109 114 117 124 125 120 121 111 110 113
128 159 184 126 138 129 130 126 118 125 147 171 147 139 139 141 146 159 167 174 187 194 199 172 174 159 112 82 92 85 83 81 83 94 101 95 86 79 78 69 67 87 102 100 99 98 102 108 118
121 118 128 125 118 120 131 127 112 139 187 152 144 143 146 152 163 174 178 182 174 173 198 191 170 158 158 129 106 107 108 102 103 116 125 116 98 78 81 74 70 72 87 95 98 101 97 98 137
109 114 101 101 101 109 104 105 116 109 114 121 129 135 149 160 170 175 176 170 168 180 192 189 168 170 162 144 156 136 142 146 151 152 160 153 134 122 102 109 113 112 119 128 134 152 134 64 222
122 97 95 94 100 106 108 91 91 122 125 128 139 150 161 169 171 161 162 172 181 188 191 180 170 171 156 155 166 163 168 176 172 190 199 182 169 158 149 165 191 218 196 193 190 193 174 225 231
91 82 65 84 108 123 104 70 123 150 135 142 155 162 166 176 176 179 184 183 188 186 183 176 171 156 153 163 180 171 180 172 182 216 205 188 184 181 176 180 221 231 201 186 166 139 132 165 196
66 72 83 247 126 127 119 186 191 147 147 157 168 172 176 186 190 193 183 176 178 172 172 179 172 155 156 159 167 148 162 173 209 218 200 195 194 189 181 189 223 228 182 167 153 155 141 162 176
48 99 163 269 173 137 142 192 182 155 159 169 176 182 186 189 202 202 184 178 177 173 171 169 158 153 155 150 137 121 122 150 226 213 200 204 198 187 181 195 214 195 170 177 196 163 158 180 199
182 159 187 213 200 141 162 201 170 169 173 181 184 188 193 198 204 195 186 179 175 166 163 163 151 142 131 115 98 85 81 52 351 211 212 206 199 183 176 192 202 170 154 181 181 173 152 157 178
158 157 186 228 183 149 192 208 188 179 182 191 195 196 201 210 203 182 182 176 165 158 160 165 156 147 127 111 118 122 164 236 310 261 218 199 194 173 157 181 183 169 175 190 173 158 138 109 107
138 147 177 259 115 140 172 244 207 193 200 200 200 203 204 203 191 185 181 176 178 179 179 173 171 158 152 148 145 145 140 151 209 295 6 223 200 183 176 172 187 186 179 176 174 158 144 159 139
166 173 183 171 79 63 75 342 254 225 215 215 212 206 203 203 199 193 186 187 185 190 189 186 177 165 163 155 116 91 73 52 45 5 340 296 231 212 194 191 188 192 187 202 206 185 176 189 198
203 200 165 142 116 4 109 279 283 230 221 224 221 212 207 207 198 194 194 194 196 200 187 172 166 160 158 148 146 149 152 179 223 235 269 317 311 239 222 212 196 194 198 213 221 202 195 182 203
187 129 122 116 115 70 43 138 290 275 237 237 226 219 211 201 193 195 198 198 195 185 175 166 155 156 155 155 163 156 162 179 169 131 2 308 308 285 252 214 202 202 211 223 224 205 198 195 198
122 83 65 53 69 38 251 169 279 242 230 240 220 216 205 193 189 192 188 175 173 166 165 160 158 167 166 161 164 169 176 176 166 182 217 259 276 287 275 220 209 212 218 226 225 216 208 208 210
107 101 55 16 16 254 251 185 251 256 239 228 214 208 195 181 176 174 170 169 172 170 170 165 165 176 178 170 174 183 186 184 190 202 209 213 234 259 268 239 219 225 225 225 219 212 218 210 207
165 139 153 179 210 263 298 230 257 276 269 243 204 183 169 170 174 176 177 175 178 179 175 169 171 181 186 186 190 187 184 183 197 207 205 205 218 233 236 215 220 230 227 224 200 206 220 205 205
135 149 151 130 135 131 278 284 302 306 314 288 159 157 172 176 173 175 177 178 179 180 182 176 174 180 195 197 187 191 183 177 187 195 194 206 228 239 198 187 223 249 231 211 184 210 230 206 208
132 139 107 121 142 206 283 276 258 271 264 241 186 177 180 171 169 173 178 181 182 182 180 175 175 184 189 189 190 193 186 181 173 160 167 186 206 138 121 115 107 27 293 197 169 198 262 184 268
109 97 104 109 140 152 217 263 235 233 231 216 207 192 179 174 177 178 179 181 178 173 176 179 179 179 181 181 179 168 166 165 151 158 182 191 188 134 149 156 101 73 329 121 134 135 116 132 52
144 152 146 147 181 166 171 256 282 236 224 198 193 184 173 171 172 173 166 163 170 181 181 177 178 176 178 171 161 160 151 144 151 174 197 172 123 87 122 128 129 172 148 124 142 145 132 146 109
Height
1482 1483 1484 1486 1489 1501 1505 1499 1494 1495 1496 1497 1496 1497 1499 1502 1505 1511 1507 1505 1506 1506 1507 1507 1508 1509 1509 1510 1510 1511 1511 1512 1513 1514 1515 1516 1517 1518 1519 1520 1521 1523 1524 1525 1525 1526 1525 1526 1529
1483 1484 1487 1488 1499 1514 1510 1498 1497 1497 1498 1498 1498 1500 1501 1503 1505 1506 1506 1507 1507 1508 1508 1509 1510 1511 1511 1512 1512 1513 1514 1514 1515 1516 1517 1518 1519 1520 1521 1522 1523 1525 1526 1527 1528 1529 1529 1530 1532
1484 1486 1488 1492 1503 1512 1507 1499 1498 1498 1499 1499 1501 1502 1504 1506 1507 1507 1508 1509 1509 1510 1511 1511 1512 1513 1513 1514 1514 1515 1515 1516 1517 1518 1519 1520 1522 1523 1523 1524 1525 1527 1528 1529 1530 1531 1532 1534 1535
1486 1488 1490 1498 1505 1501 1499 1498 1497 1498 1500 1501 1502 1505 1507 1509 1509 1510 1510 1510 1511 1512 1513 1514 1514 1515 1515 1516 1516 1516 1516 1517 1518 1520 1521 1522 1523 1524 1525 1526 1527 1528 1530 1531 1532 1533 1535 1536 1537
1487 1489 1497 1506 1504 1499 1497 1498 1499 1499 1501 1503 1504 1507 1510 1511 1512 1512 1512 1513 1514 1515 1515 1516 1517 1517 1517 1517 1517 1517 1517 1518 1520 1521 1523 1524 1525 1526 1527 1528 1529 1530 1532 1533 1534 1535 1536 1538 1540
1488 1491 1507 1513 1506 1501 1500 1500 1501 1502 1504 1506 1507 1509 1512 1513 1514 1514 1515 1515 1516 1517 1517 1518 1519 1519 1519 1518 1518 1517 1517 1518 1520 1522 1524 1526 1527 1528 1529 1530 1531 1532 1533 1534 1536 1537 1538 1539 1541
1490 1496 1506 1508 1507 1504 1502 1502 1502 1503 1505 1507 1509 1511 1514 1515 1516 1516 1517 1518 1519 1519 1520 1520 1521 1521 1521 1520 1519 1517 1517 1518 1521 1524 1526 1528 1529 1530 1531 1532 1533 1534 1535 1536 1537 1538 1540 1541 1543
1489 1496 1504 1507 1507 1505 1502 1503 1504 1505 1507 1509 1510 1511 1514 1516 1517 1518 1519 1520 1521 1521 1522 1522 1523 1523 1523 1522 1522 1521 1520 1521 1523 1526 1528 1530 1531 1532 1533 1534 1535 1535 1536 1537 1538 1539 1541 1542 1544
1490 1500 1509 1505 1505 1503 1501 1503 1506 1507 1508 1509 1510 1511 1513 1516 1518 1519 1520 1521 1522 1523 1524 1524 1524 1525 1525 1525 1525 1524 1525 1525 1527 1529 1530 1532 1533 1533 1534 1535 1536 1537 1537 1539 1539 1541 1542 1544 1545
1491 1504 1501 1496 1496 1498 1501 1503 1505 1508 1510 1511 1512 1513 1515 1517 1519 1520 1521 1522 1523 1524 1525 1526 1526 1527 1527 1527 1528 1528 1528 1529 1530 1531 1533 1533 1534 1535 1536 1537 1538 1539 1540 1541 1541 1543 1544 1545 1547
1491 1497 1494 1494 1494 1497 1501 1504 1506 1508 1511 1511 1511 1514 1516 1518 1520 1521 1523 1524 1525 1526 1526 1527 1528 1529 1529 1530 1530 1531 1531 1532 1533 1534 1534 1535 1536 1537 1537 1538 1539 1540 1541 1542 1543 1544 1546 1547 1548
1491 1492 1492 1494 1496 1499 1502 1504 1507 1509 1510 1511 1513 1514 1517 1519 1521 1522 1524 1525 1526 1527 1528 1529 1529 1530 1531 1531 1532 1533 1533 1534 1535 1535 1536 1537 1537 1538 1539 1540 1541 1542 1543 1544 1545 1546 1547 1548 1548
1492 1493 1494 1495 1497 1500 1503 1506 1508 1510 1511 1513 1515 1517 1519 1520 1522 1524 1525 1526 1527 1528 1529 1530 1531 1531 1532 1533 1534 1534 1535 1536 1536 1537 1537 1538 1539 1539 1540 1541 1542 1543 1544 1545 1546 1547 1547 1548 1549
1492 1494 1495 1497 1499 1503 1505 1508 1510 1512 1513 1514 1516 1518 1520 1521 1523 1524 1525 1526 1527 1528 1530 1531 1532 1533 1534 1534 1535 1536 1536 1537 1537 1538 1539 1539 1540 1541 1542 1542 1543 1544 1545 1545 1546 1547 1548 1549 1549
1493 1497 1499 1500 1501 1504 1506 1512 1512 1513 1514 1515 1517 1519 1521 1522 1523 1524 1525 1526 1528 1529 1530 1531 1532 1533 1534 1535 1536 1537 1538 1538 1539 1539 1540 1540 1541 1541 1542 1543 1544 1545 1545 1546 1547 1547 1548 1549 1549
1496 1504 1510 1504 1502 1504 1510 1519 1512 1513 1514 1516 1518 1519 1520 1521 1522 1524 1525 1527 1528 1529 1530 1531 1533 1534 1535 1536 1537 1538 1538 1539 1539 1540 1540 1541 1541 1542 1543 1543 1544 1545 1545 1546 1546 1547 1547 1548 1549
1507 1515 1514 1508 1503 1504 1509 1515 1511 1512 1514 1515 1517 1518 1520 1521 1523 1524 1526 1527 1528 1530 1531 1532 1533 1534 1535 1536 1537 1538 1539 1539 1540 1540 1541 1541 1542 1542 1543 1543 1544 1545 1545 1545 1546 1546 1547 1547 1548
1513 1513 1513 1511 1505 1506 1510 1512 1510 1511 1513 1515 1516 1517 1519 1520 1521 1524 1526 1527 1528 1530 1531 1532 1533 1534 1535 1536 1537 1538 1539 1539 1540 1540 1541 1541 1542 1542 1542 1543 1543 1544 1544 1544 1545 1545 1546 1546 1547
1501 1507 1512 1508 1502 1506 1510 1511 1510 1511 1512 1514 1515 1516 1517 1519 1521 1523 1525 1527 1528 1529 1531 1532 1533 1534 1535 1536 1537 1538 1538 1539 1539 1540 1541 1541 1541 1542 1542 1542 1542 1543 1543 1543 1544 1544 1545 1545 1546
1500 1508 1510 1507 1502 1506 1512 1512 1508 1508 1509 1510 1512 1514 1515 1517 1520 1522 1524 1525 1527 1528 1530 1531 1533 1534 1536 1537 1537 1538 1538 1539 1539 1539 1540 1540 1541 1541 1541 1541 1541 1542 1542 1542 1543 1543 1543 1544 1544
1501 1506 1507 1508 1506 1507 1511 1515 1511 1508 1508 1510 1511 1512 1514 1515 1517 1519 1522 1524 1526 1528 1529 1531 1532 1534 1535 1536 1537 1537 1538 1537 1538 1539 1539 1540 1540 1540 1541 1540 1540 1541 1541 1541 1541 1542 1542 1542 1543
1503 1495 1498 1504 1514 1522 1518 1533 1515 1509 1509 1507 1508 1509 1511 1513 1515 1518 1520 1522 1524 1526 1528 1530 1532 1533 1534 1535 1536 1536 1537 1537 1537 1537 1538 1539 1539 1539 1539 1539 1539 1539 1540 1540 1540 1540 1540 1541 1541
1494 1492 1498 1505 1514 1524 1523 1532 1523 1511 1511 1506 1504 1505 1507 1509 1512 1515 1518 1520 1523 1525 1527 1529 1530 1532 1533 1534 1535 1535 1536 1536 1536 1536 1537 1537 1538 1538 1538 1538 1538 1538 1538 1538 1538 1538 1538 1538 1539
1489 1498 1506 1515 1523 1536 1528 1532 1527 1514 1507 1501 1500 1501 1503 1506 1510 1513 1516 1519 1522 1524 1526 1528 1529 1530 1532 1533 1533 1534 1534 1535 1535 1535 1535 1536 1536 1536 1536 1536 1536 1536 1536 1536 1536 1536 1536 1536 1536
1491 1510 1532 1536 1545 1541 1527 1529 1523 1501 1497 1496 1496 1497 1500 1503 1507 1510 1513 1516 1519 1522 1524 1526 1528 1529 1530 1531 1532 1532 1533 1533 1533 1534 1534 1534 1534 1534 1535 1535 1535 1535 1535 1534 1534 1534 1534 1534 1533
1493 1503 1529 1543 1546 1540 1529 1528 1510 1495 1493 1492 1493 1495 1498 1501 1504 1507 1510 1513 1517 1520 1522 1524 1526 1528 1529 1530 1531 1531 1532 1532 1532 1533 1533 1533 1533 1533 1533 1533 1533 1533 1533 1533 1533 1532 1532 1532 1531
1495 1503 1504 1526 1534 1540 1534 1521 1504 1493 1492 1491 1492 1494 1496 1499 1502 1505 1508 1512 1515 1518 1520 1523 1524 1525 1527 1528 1529 1530 1530 1530 1531 1531 1531 1532 1532 1532 1532 1532 1532 1532 1531 1531 1531 1531 1530 1530 1530
1485 1496 1512 1526 1541 1544 1532 1525 1517 1499 1495 1492 1492 1493 1495 1498 1501 1504 1507 1510 1513 1516 1519 1521 1523 1524 1525 1526 1527 1528 1529 1529 1529 1530 1530 1530 1530 1530 1531 1531 1530 1530 1530 1530 1529 1529 1529 1529 1528
1491 1499 1510 1522 1524 1540 1542 1527 1497 1494 1491 1490 1490 1491 1494 1496 1499 1502 1506 1509 1512 1515 1517 1519 1521 1523 1524 1525 1526 1527 1527 1528 1528 1528 1528 1529 1529 1529 1529 1529 1529 1529 1529 1528 1528 1528 1527 1527 1526
1481 1491 1502 1515 1525 1529 1532 1522 1488 1488 1487 1487 1488 1490 1492 1495 1498 1502 1504 1507 1510 1513 1516 1518 1520 1521 1522 1523 1524 1525 1525 1526 1526 1527 1527 1527 1527 1527 1527 1527 1527 1527 1527 1527 1527 1526 1526 1525 1524